Weather in Svetlyy

Russia / Arkhangel'skaya Oblast'     64°02′31″N   42°41′50″E
temp.,
°C
wind,
m/s
gust,
m/s
humid.,
%
clouds,
%
prec.,
mm/h
press.,
hPa
HPBL,
m
11 april, sun
sun1100:00+4s61484100 0.0 10121235
03:00+4ssw71681100 0.1 10101357
06:00+1sw61185100 1.5 10121131
09:00+1sw51181100 1.6 10151312
12:00+4sw6146931 0.1 10161423
15:00+6sw8176394 0.6 10172402
18:00+3wsw613645 1.2 10191365
21:00+2wsw614715 1.2 1022981
12 april, mon
mon1200:00+2wsw614745 0.0 1025918
03:00+1wsw513795 0.0 1028706
06:000sw41284100 0.0 1030508
09:00+4wsw497050 0.0 1031638
12:00+7sw5848100 0.0 10321075
15:00+8ssw4852100 0.0 10301361
18:00+4se21086100 1.0 1028481
21:00+6ssw41488100 1.0 1026619
13 april, tue
tue1300:00+6ssw51594100 0.0 1025600
03:00+7ssw51492100 0.0 1025519
06:00+6ssw41293100 0.0 1023432
09:00+9ssw5117997 0.0 1021541
12:00+10ssw5866100 0.0 1020871
15:00+10ssw4774100 0.0 1019934
18:00+8ssw4985100 0.0 1019566
21:00+6ssw4119450 0.0 1019347
14 april, wed
wed1400:00+5ssw31095100 0.0 1018269
03:00+6ssw41393100 0.0 1017438
06:00+7ssw41392100 0.0 1016435
09:00+7ssw41390100 0.0 1014722
12:00+6sw51380100 0.9 10141197
15:00+8wsw61256100 0.9 10141710
18:00+5w51157100 0.0 10171446
21:00+3w396685 0.0 1019444
15 april, thu
thu1500:000w278258 0.0 1020193
03:00−1w27898 0.0 1021224
06:00−1wnw258548 0.0 1022290
09:00+2wnw226979 0.0 1022834
12:00+3wnw2357100 0.1 10221291
15:00+5wnw3448100 0.2 10221470
18:00+2nw5872100 0.2 1023975
21:000nw4107934 0.2 1024776